DW3800 Weather Reports


time (UTC)temp
C
wind
direction
speed
KPH
gust
KPH
rain 1hr
cm
rain 24hr
cm
rain mn
cm
humidity
%
barometer
mb
20260901065632 20 248 0.0 0.0 0.00 0.00 0.00 91 1016.7
20260901065127 20 219 0.0 0.0 0.00 0.00 0.00 90 1016.8
20260901064624 20 219 0.0 0.0 0.00 0.00 0.00 90 1017.0
20260901064120 20 218 0.0 0.0 0.00 0.00 0.00 90 1016.9
20260901063616 20 218 0.0 0.0 0.00 0.00 0.00 89 1017.1
20260901063112 20 219 0.0 0.0 0.00 0.00 0.00 89 1017.1
20260901062608 20 203 0.0 0.0 0.00 0.00 0.00 88 1017.1
20260901062103 20 209 0.0 0.0 0.00 0.00 0.00 87 1017.2
20260901061600 20 209 0.0 0.0 0.00 0.00 0.00 86 1017.0
20260901061054 21 210 0.0 0.0 0.00 0.00 0.00 85 1017.0
20260901060549 21 217 0.0 0.0 0.00 0.00 0.00 84 1016.8
20260901060044 21 202 0.0 0.0 0.00 0.00 0.00 84 1016.9
20260901055539 21 195 0.0 0.0 0.00 0.00 0.00 84 1017.0
20260901055036 21 211 0.0 0.0 0.00 0.00 0.00 83 1016.7
20260901054533 21 202 0.0 0.0 0.00 0.00 0.00 83 1016.8
20260901054029 22 208 0.0 0.0 0.00 0.00 0.00 81 1016.7
20260901053525 22 219 1.6 1.6 0.00 0.00 0.00 81 1016.8
20260901053020 22 200 0.0 1.6 0.00 0.00 0.00 80 1016.4
20260901052520 22 218 1.6 3.2 0.00 0.00 0.00 80 1016.6
20260901052020 22 222 0.0 3.2 0.00 0.00 0.00 80 1016.5
20260901051515 22 223 0.0 1.6 0.00 0.00 0.00 80 1016.3
20260901051014 22 201 0.0 1.6 0.00 0.00 0.00 80 1016.3
20260901050509 22 208 0.0 1.6 0.00 0.00 0.00 80 1016.3
20260901050004 22 227 0.0 3.2 0.00 0.00 0.00 81 1016.1
20260901045459 21 267 0.0 0.0 0.00 0.00 0.00 83 1016.1
20260901044954 21 278 0.0 0.0 0.00 0.00 0.00 83 1016.2
20260901044450 21 273 0.0 0.0 0.00 0.00 0.00 84 1016.2
20260901043946 21 273 0.0 0.0 0.00 0.00 0.00 83 1016.0
20260901043442 21 299 1.6 1.6 0.00 0.00 0.00 84 1016.1
20260901042941 21 148 0.0 0.0 0.00 0.00 0.00 84 1016.1
20260901042436 21 207 0.0 0.0 0.00 0.00 0.00 83 1016.0
20260901041931 21 207 0.0 0.0 0.00 0.00 0.00 82 1016.1
20260901041426 21 208 0.0 0.0 0.00 0.00 0.00 82 1016.0
20260901040925 21 209 0.0 0.0 0.00 0.00 0.00 81 1016.1
20260901040420 21 201 0.0 0.0 0.00 0.00 0.00 80 1016.3
20260901035914 22 180 0.0 0.0 0.00 0.00 0.00 78 1016.1
20260901035413 22 180 0.0 0.0 0.00 0.00 0.00 78 1016.3
20260901034911 22 207 0.0 0.0 0.00 0.00 0.00 76 1016.2
20260901034406 22 218 0.0 0.0 0.00 0.00 0.00 75 1016.3
20260901033901 22 229 0.0 0.0 0.00 0.00 0.00 75 1016.5
20260901033401 22 225 0.0 0.0 0.00 0.00 0.00 75 1016.3
20260901032859 22 213 0.0 0.0 0.00 0.00 0.00 76 1016.2
20260901032358 22 226 0.0 0.0 0.00 0.00 0.00 75 1016.2
20260901031854 22 226 0.0 0.0 0.00 0.00 0.00 74 1016.2
20260901031350 22 226 0.0 0.0 0.00 0.00 0.00 73 1016.2
20260901030849 22 226 0.0 0.0 0.00 0.00 0.00 72 1016.0
20260901030345 23 226 0.0 0.0 0.00 0.00 0.00 72 1016.1
20260901025843 23 228 0.0 0.0 0.00 0.00 0.00 70 1016.2
20260901025338 23 243 0.0 0.0 0.00 0.00 0.00 69 1015.9
20260901024833 23 244 0.0 0.0 0.00 0.00 0.00 69 1015.9
20260901024332 23 229 0.0 0.0 0.00 0.00 0.00 69 1016.1
20260901023830 24 229 0.0 0.0 0.00 0.00 0.00 67 1015.8
20260901023326 25 244 0.0 0.0 0.00 0.00 0.00 65 1015.7
20260901022821 25 214 0.0 0.0 0.00 0.00 0.00 64 1015.7
20260901022317 24 212 0.0 3.2 0.00 0.00 0.00 64 1015.8
20260901021812 24 217 0.0 0.0 0.00 0.00 0.00 65 1015.9
20260901021308 24 202 0.0 0.0 0.00 0.00 0.00 65 1015.6
20260901020802 25 207 0.0 0.0 0.00 0.00 0.00 65 1015.7
20260901020257 25 190 0.0 0.0 0.00 0.00 0.00 65 1015.7
20260901015752 25 213 0.0 3.2 0.00 0.00 0.00 63 1015.7
20260901015248 25 207 0.0 0.0 0.00 0.00 0.00 63 1015.7
20260901014747 25 209 0.0 0.0 0.00 0.00 0.00 63 1015.5
20260901014243 25 239 1.6 1.6 0.00 0.00 0.00 64 1015.6
20260901013739 25 245 0.0 0.0 0.00 0.00 0.00 65 1015.2
20260901013234 25 289 0.0 0.0 0.00 0.00 0.00 64 1015.4
20260901012730 26 294 0.0 0.0 0.00 0.00 0.00 64 1015.1
20260901012229 26 267 0.0 0.0 0.00 0.00 0.00 62 1015.2
20260901011726 26 300 0.0 0.0 0.00 0.00 0.00 62 1014.9
20260901011220 26 278 0.0 0.0 0.00 0.00 0.00 62 1015.0
20260901010714 26 274 0.0 0.0 0.00 0.00 0.00 60 1015.1
20260901010209 26 243 0.0 0.0 0.00 0.00 0.00 58 1015.4
20260901005708 26 243 0.0 0.0 0.00 0.00 0.00 57 1015.0
20260901005204 26 254 0.0 0.0 0.00 0.00 0.00 58 1015.0
20260901004703 26 231 0.0 0.0 0.00 0.00 0.00 57 1014.9
20260901004157 26 231 0.0 0.0 0.00 0.00 0.00 57 1014.9
20260901003652 27 231 0.0 0.0 0.00 0.00 0.00 59 1015.1
20260901003151 27 219 0.0 0.0 0.00 0.00 0.00 58 1015.0
20260901002645 27 215 0.0 0.0 0.00 0.00 0.00 59 1015.0
20260901002140 28 216 0.0 0.0 0.00 0.00 0.00 58 1015.1
20260901001636 28 212 0.0 0.0 0.00 0.00 0.00 55 1014.9
20260901001131 29 213 0.0 0.0 0.00 0.00 0.00 55 1014.8
20260901000626 29 213 0.0 0.0 0.00 0.00 0.00 57 1014.9
20260901000121 29 222 0.0 0.0 0.00 0.00 0.00 56 1014.7
20260831235615 29 204 0.0 0.0 0.00 0.00 0.00 55 1014.8
20260831235111 30 230 0.0 0.0 0.00 0.00 0.00 55 1014.9
20260831234610 30 229 0.0 0.0 0.00 0.00 0.00 53 1014.7
20260831234106 30 230 0.0 0.0 0.00 0.00 0.00 53 1014.8
20260831233601 30 7 1.6 1.6 0.00 0.00 0.00 50 1014.6
20260831233056 30 205 0.0 1.6 0.00 0.00 0.00 49 1014.6
20260831232551 31 239 1.6 1.6 0.00 0.00 0.00 48 1014.6
20260831232047 31 186 0.0 3.2 0.00 0.00 0.00 47 1014.6
20260831231543 31 15 3.2 3.2 0.00 0.00 0.00 44 1014.6
20260831231039 31 320 1.6 1.6 0.00 0.00 0.00 43 1014.7
20260831230534 31 201 1.6 1.6 0.00 0.00 0.00 43 1014.7
20260831230034 31 232 1.6 3.2 0.00 0.00 0.00 44 1014.6
20260831225529 31 237 1.6 9.7 0.00 0.00 0.00 43 1014.6
20260831225024 31 194 1.6 3.2 0.00 0.00 0.00 43 1014.6
20260831224519 31 210 0.0 3.2 0.00 0.00 0.00 45 1014.6
20260831224014 31 212 0.0 3.2 0.00 0.00 0.00 47 1014.3
20260831223509 31 244 0.0 3.2 0.00 0.00 0.00 48 1014.5
20260831223006 31 233 1.6 1.6 0.00 0.00 0.00 49 1014.5
20260831222502 31 219 0.0 1.6 0.00 0.00 0.00 47 1014.5
20260831222001 31 249 1.6 3.2 0.00 0.00 0.00 45 1014.3
20260831221457 31 215 0.0 0.0 0.00 0.00 0.00 47 1014.2
20260831220952 32 354 3.2 4.8 0.00 0.00 0.00 43 1014.1
20260831220447 32 199 1.6 1.6 0.00 0.00 0.00 43 1014.5
20260831215942 32 219 1.6 4.8 0.00 0.00 0.00 42 1014.3
20260831215438 32 211 0.0 3.2 0.00 0.00 0.00 45 1014.3
20260831214934 32 214 1.6 1.6 0.00 0.00 0.00 46 1014.2
20260831214431 32 212 1.6 8.0 0.00 0.00 0.00 45 1014.2
20260831213927 32 207 1.6 4.8 0.00 0.00 0.00 48 1014.1
20260831213423 32 245 1.6 3.2 0.00 0.00 0.00 48 1014.1
20260831212923 32 237 1.6 3.2 0.00 0.00 0.00 48 1014.1
20260831212420 32 193 0.0 1.6 0.00 0.00 0.00 49 1014.0
20260831211919 32 255 6.4 8.0 0.00 0.00 0.00 50 1014.0
20260831211414 32 348 4.8 9.7 0.00 0.00 0.00 50 1013.8
20260831210908 32 274 3.2 4.8 0.00 0.00 0.00 49 1014.1
20260831210403 32 198 1.6 9.7 0.00 0.00 0.00 51 1014.1
20260831205859 32 130 3.2 8.0 0.00 0.00 0.00 50 1013.9
20260831205354 32 200 4.8 4.8 0.00 0.00 0.00 52 1014.2
20260831204849 32 186 1.6 3.2 0.00 0.00 0.00 51 1014.1
20260831204348 32 196 4.8 4.8 0.00 0.00 0.00 48 1014.2
20260831203848 32 157 1.6 8.0 0.00 0.00 0.00 50 1014.1
20260831203343 32 350 1.6 3.2 0.00 0.00 0.00 50 1014.2
20260831202841 32 60 3.2 4.8 0.00 0.00 0.00 50 1014.0
20260831202336 32 198 1.6 4.8 0.00 0.00 0.00 49 1014.2
20260831201836 32 202 1.6 8.0 0.00 0.00 0.00 50 1014.0
20260831201335 32 270 3.2 11.3 0.00 0.00 0.00 51 1014.2
20260831200831 32 193 1.6 8.0 0.00 0.00 0.00 53 1014.2
20260831200325 32 334 3.2 11.3 0.00 0.00 0.00 54 1014.1
20260831195821 32 304 3.2 4.8 0.00 0.00 0.00 53 1014.1
20260831195317 32 220 1.6 4.8 0.00 0.00 0.00 53 1013.8
20260831194812 32 330 3.2 9.7 0.00 0.00 0.00 56 1013.8
20260831194307 32 227 1.6 4.8 0.00 0.00 0.00 55 1013.6
20260831193806 32 184 0.0 3.2 0.00 0.00 0.00 56 1013.9
20260831193301 32 172 1.6 8.0 0.00 0.00 0.00 57 1013.8
20260831192756 31 296 3.2 4.8 0.00 0.00 0.00 57 1014.1
20260831192251 31 44 1.6 11.3 0.00 0.00 0.00 58 1014.0
20260831191747 31 90 3.2 8.0 0.00 0.00 0.00 59 1014.0
20260831191244 31 118 3.2 3.2 0.00 0.00 0.00 56 1013.9
20260831190739 31 181 0.0 1.6 0.00 0.00 0.00 60 1013.8
20260831190238 31 255 3.2 9.7 0.00 0.00 0.00 60 1013.7
20260831185733 30 146 0.0 4.8 0.00 0.00 0.00 63 1013.8
20260831185229 30 324 4.8 4.8 0.00 0.00 0.00 64 1013.8
20260831184728 30 138 3.2 11.3 0.00 0.00 0.00 64 1013.7
20260831184224 31 257 4.8 4.8 0.00 0.00 0.00 59 1013.7
20260831183723 30 82 4.8 8.0 0.00 0.00 0.00 60 1013.8
20260831183218 31 196 3.2 3.2 0.00 0.00 0.00 59 1013.9
20260831182717 31 239 1.6 9.7 0.00 0.00 0.00 56 1013.9
20260831182213 31 240 1.6 12.9 0.00 0.00 0.00 62 1014.0
20260831181712 31 180 1.6 8.0 0.00 0.00 0.00 57 1013.8
20260831181208 31 164 0.0 1.6 0.00 0.00 0.00 69 1014.0
20260831180702 30 200 3.2 3.2 0.00 0.00 0.00 67 1014.0
20260831180152 30 175 3.2 4.8 0.00 0.00 0.00 72 1013.9
20260831175651 30 185 1.6 3.2 0.00 0.00 0.00 72 1013.8
20260831175148 30 194 1.6 9.7 0.00 0.00 0.00 72 1013.8
20260831174643 30 160 1.6 3.2 0.00 0.00 0.00 74 1014.0
20260831174138 30 123 1.6 4.8 0.00 0.00 0.00 74 1014.2
20260831173636 29 334 1.6 8.0 0.00 0.00 0.00 75 1014.1
20260831173133 29 355 4.8 8.0 0.00 0.00 0.00 75 1014.1
20260831172632 29 345 6.4 8.0 0.00 0.00 0.00 75 1014.2
20260831172132 29 207 3.2 4.8 0.00 0.00 0.00 76 1014.4
20260831171627 28 163 1.6 4.8 0.00 0.00 0.00 77 1014.1
20260831171125 29 70 4.8 8.0 0.00 0.00 0.00 77 1014.1
20260831170621 28 164 1.6 1.6 0.00 0.00 0.00 80 1014.2
20260831170118 28 262 1.6 8.0 0.00 0.00 0.00 78 1014.1
20260831165613 28 171 1.6 3.2 0.00 0.00 0.00 79 1014.1
20260831165110 28 249 3.2 3.2 0.00 0.00 0.00 78 1014.1
20260831164605 28 175 1.6 8.0 0.00 0.00 0.00 79 1013.9
20260831164101 28 210 3.2 3.2 0.00 0.00 0.00 80 1013.8
20260831163555 28 162 1.6 1.6 0.00 0.00 0.00 79 1013.9
20260831163051 28 236 1.6 3.2 0.00 0.00 0.00 79 1014.0
20260831162550 28 155 3.2 4.8 0.00 0.00 0.00 79 1014.1
20260831162048 28 208 1.6 8.0 0.00 0.00 0.00 81 1013.9
20260831161544 27 241 4.8 8.0 0.00 0.00 0.00 82 1013.9
20260831161041 27 172 3.2 8.0 0.00 0.00 0.00 83 1013.9
20260831160539 27 230 1.6 3.2 0.00 0.00 0.00 82 1013.8
20260831160036 27 261 3.2 3.2 0.00 0.00 0.00 83 1013.8
20260831155530 27 227 3.2 3.2 0.00 0.00 0.00 83 1014.0
20260831155025 27 212 3.2 9.7 0.00 0.00 0.00 83 1014.1
20260831154521 27 247 1.6 3.2 0.00 0.00 0.00 83 1013.9
20260831154020 27 237 1.6 4.8 0.00 0.00 0.00 84 1014.0
20260831153515 27 102 3.2 4.8 0.00 0.00 0.00 83 1013.6
20260831153012 27 200 6.4 9.7 0.00 0.00 0.00 83 1013.7
20260831152507 27 232 1.6 1.6 0.00 0.00 0.00 84 1013.5
20260831152002 26 166 1.6 8.0 0.00 0.00 0.00 85 1013.5
20260831151501 26 107 0.0 3.2 0.00 0.00 0.00 86 1013.6
20260831150956 26 222 3.2 4.8 0.00 0.00 0.00 86 1013.2
20260831150452 26 125 0.0 1.6 0.00 0.00 0.00 86 1013.4
20260831145951 26 231 1.6 8.0 0.00 0.00 0.00 87 1013.1
20260831145447 26 143 1.6 8.0 0.00 0.00 0.00 88 1013.2
20260831144943 25 167 0.0 3.2 0.00 0.00 0.00 88 1013.2
20260831144438 25 151 3.2 3.2 0.00 0.00 0.00 88 1013.1
20260831143933 25 179 4.8 8.0 0.00 0.00 0.00 88 1013.0
20260831143428 25 194 3.2 4.8 0.00 0.00 0.00 88 1013.0
20260831142924 25 169 8.0 8.0 0.00 0.00 0.00 89 1012.7
20260831142420 25 259 6.4 9.7 0.00 0.00 0.00 89 1013.1
20260831141914 25 219 4.8 4.8 0.00 0.00 0.00 89 1012.8
20260831141408 25 192 1.6 3.2 0.00 0.00 0.00 89 1012.8
20260831140903 24 228 1.6 4.8 0.00 0.00 0.00 90 1012.5
20260831140358 24 252 4.8 4.8 0.00 0.00 0.00 91 1012.7
20260831135857 24 268 3.2 4.8 0.00 0.00 0.00 91 1012.6
20260831135356 24 133 1.6 1.6 0.00 0.00 0.00 92 1012.5
20260831134852 23 169 3.2 4.8 0.00 0.00 0.00 92 1012.5
20260831134348 23 138 1.6 4.8 0.00 0.00 0.00 92 1012.4
20260831133847 23 221 4.8 8.0 0.00 0.00 0.00 93 1012.4
20260831133342 23 144 4.8 8.0 0.00 0.00 0.00 94 1012.4
20260831132837 23 226 3.2 4.8 0.00 0.00 0.00 95 1012.3
20260831132332 22 192 0.0 3.2 0.00 0.00 0.00 96 1012.3
20260831131832 22 241 4.8 4.8 0.00 0.00 0.00 97 1012.1
20260831131328 22 119 0.0 3.2 0.00 0.00 0.00 98 1012.3
20260831130823 22 217 1.6 1.6 0.00 0.00 0.00 99 1012.1
20260831130319 22 157 1.6 4.8 0.00 0.00 0.00 99 1011.8
20260831125818 22 232 3.2 4.8 0.00 0.00 0.00 99 1012.2
20260831125313 21 132 0.0 1.6 0.00 0.00 0.00 99 1012.0
20260831124813 21 180 0.0 1.6 0.00 0.00 0.00 99 1011.7
20260831124310 21 168 1.6 4.8 0.00 0.00 0.00 99 1012.1
20260831123809 21 157 0.0 4.8 0.00 0.00 0.00 99 1012.1
20260831123308 21 148 0.0 0.0 0.00 0.00 0.00 99 1012.0
20260831122803 21 166 0.0 1.6 0.00 0.00 0.00 99 1011.8
20260831122258 21 146 0.0 0.0 0.00 0.00 0.00 99 1012.0
20260831121753 21 181 1.6 3.2 0.00 0.00 0.00 99 1012.0
20260831121249 21 115 0.0 0.0 0.00 0.00 0.00 99 1012.0
20260831120744 21 159 0.0 0.0 0.00 0.00 0.00 99 1011.7
20260831120239 21 129 0.0 0.0 0.00 0.00 0.00 99 1011.6
20260831115734 21 132 0.0 0.0 0.00 0.00 0.00 99 1011.5
20260831115230 21 110 0.0 0.0 0.00 0.00 0.00 99 1011.5
20260831114729 21 124 0.0 0.0 0.00 0.00 0.00 99 1011.6
20260831114229 21 130 0.0 0.0 0.00 0.00 0.00 99 1011.5
20260831113725 21 121 0.0 0.0 0.00 0.00 0.00 99 1011.4
20260831113219 21 113 0.0 0.0 0.00 0.00 0.00 99 1011.2
20260831112718 21 111 0.0 0.0 0.00 0.00 0.00 99 1011.1
20260831112214 21 153 0.0 1.6 0.00 0.00 0.00 99 1011.1
20260831111709 21 114 0.0 0.0 0.00 0.00 0.00 99 1010.9
20260831111206 21 97 0.0 0.0 0.00 0.00 0.00 99 1011.0
20260831110701 21 109 0.0 0.0 0.00 0.00 0.00 99 1011.0
20260831110156 21 106 0.0 0.0 0.00 0.00 0.00 99 1011.0
20260831105655 21 108 0.0 0.0 0.00 0.00 0.00 99 1011.0
20260831105150 21 121 0.0 0.0 0.00 0.00 0.00 99 1010.9
20260831104645 21 115 0.0 0.0 0.00 0.00 0.00 99 1011.0
20260831104142 21 98 0.0 0.0 0.00 0.00 0.00 99 1011.0
20260831103637 21 123 0.0 1.6 0.00 0.00 0.00 99 1010.8
20260831103132 21 111 0.0 0.0 0.00 0.00 0.00 99 1010.9
20260831102632 21 114 0.0 0.0 0.00 0.00 0.00 99 1010.8
20260831102127 21 106 0.0 1.6 0.00 0.00 0.00 99 1011.0
20260831101627 21 105 0.0 0.0 0.00 0.00 0.00 99 1010.9
20260831101123 21 88 0.0 0.0 0.00 0.00 0.00 99 1011.0
20260831100619 21 100 0.0 0.0 0.00 0.00 0.00 98 1010.8
20260831100115 21 119 3.2 4.8 0.00 0.00 0.00 98 1011.0
20260831095613 21 113 0.0 0.0 0.00 0.00 0.00 98 1010.9
20260831095108 21 105 0.0 0.0 0.00 0.00 0.00 98 1011.1
20260831094603 21 106 1.6 1.6 0.00 0.00 0.00 98 1011.0
20260831094100 21 112 1.6 4.8 0.00 0.00 0.00 98 1010.9
20260831093554 21 109 0.0 1.6 0.00 0.00 0.00 98 1010.8
20260831093051 21 8 0.0 1.6 0.00 0.00 0.00 98 1010.9
20260831092547 21 115 0.0 1.6 0.00 0.00 0.00 97 1010.8
20260831092042 21 124 0.0 1.6 0.00 0.00 0.00 97 1010.8
20260831091542 21 105 1.6 3.2 0.00 0.00 0.00 97 1010.7
20260831091038 21 103 0.0 3.2 0.00 0.00 0.00 97 1011.1
20260831090533 21 107 1.6 1.6 0.00 0.00 0.00 97 1011.1
20260831090029 21 101 0.0 1.6 0.00 0.00 0.00 97 1010.9
20260831085524 21 134 1.6 4.8 0.00 0.00 0.00 97 1011.1
20260831085019 21 132 0.0 4.8 0.00 0.00 0.00 97 1011.2
20260831084515 21 137 1.6 1.6 0.00 0.00 0.00 97 1010.8
20260831084011 21 102 0.0 0.0 0.00 0.00 0.00 97 1010.8
20260831083506 21 114 0.0 3.2 0.00 0.00 0.00 96 1010.8
20260831083000 21 131 3.2 4.8 0.00 0.00 0.00 96 1010.8
20260831082500 21 131 0.0 1.6 0.00 0.00 0.00 96 1010.7
20260831081954 21 107 1.6 8.0 0.00 0.00 0.00 96 1010.6
20260831081450 21 99 0.0 0.0 0.00 0.00 0.00 96 1010.6
20260831080946 21 101 1.6 3.2 0.00 0.00 0.00 96 1010.7
20260831080441 21 174 1.6 3.2 0.00 0.00 0.00 96 1010.6
20260831075936 21 122 0.0 0.0 0.00 0.00 0.00 96 1010.6
20260831075432 21 110 0.0 4.8 0.00 0.00 0.00 95 1010.8
20260831074927 21 103 0.0 1.6 0.00 0.00 0.00 95 1010.8
20260831074426 21 118 1.6 1.6 0.00 0.00 0.00 95 1010.8
20260831073921 21 113 3.2 9.7 0.00 0.00 0.00 95 1010.8
20260831073421 21 125 1.6 4.8 0.00 0.00 0.00 95 1010.9
20260831072915 21 130 0.0 1.6 0.00 0.00 0.00 95 1010.8
20260831072411 21 126 0.0 1.6 0.00 0.00 0.00 95 1010.8
20260831071908 21 100 0.0 1.6 0.00 0.00 0.00 95 1011.1
20260831071406 21 105 0.0 1.6 0.00 0.00 0.00 94 1010.9
20260831070901 21 117 0.0 3.2 0.00 0.00 0.00 94 1011.0
20260831070400 21 125 1.6 3.2 0.00 0.00 0.00 94 1010.9
20260831065859 21 92 0.0 1.6 0.00 0.00 0.00 94 1011.0